sat.trackr.live / text

‹ back to catalog

STARLINK-37839

NORAD 69496 · 2026-131U

PAYLOAD ACTIVE UNKNOWN

§ Identity

Operator
Country
US
Launch date
2026-06-11
Launch site
AFWTR
Launch vehicle
Mass (kg)
RCS (m²)

Purposes: comms

External: N2YO · Heavens-Above · Gunter

§ Orbital elements

Epoch: 2026-09-19T08:11:28.110048Z

Period
93.90 min
Inclination
97.2828°
Eccentricity
0.0001819
Mean motion
15.33468597 rev/d
Perigee alt
464.2 km
Apogee alt
466.7 km
Semi-major
6,843.6 km
B*
4.1456e-4
RAAN
283.2790°
Arg perigee
93.3987°
Mean anomaly
266.7464°
Rev number
1,546

§ Raw data

STARLINK-378391 69496U 26131U   26262.34129757  .00013343  00000+0  41456-3 0  99992 69496  97.2828 283.2790 0001819  93.3987 266.7464 15.33468597 15463

JSON: /api/v1/satellites/69496 · /tle

For live sub-satellite position, see the globe view (requires WebGL).

§ Visibility from observer

Set your observer location to see the next 7 days of passes ≥ 10°. The values pass through the URL so the page stays shareable.

No JS? Fill the form by hand. The geolocation button needs JavaScript.